This is the latest recevied weather packets stored in our database for station/object G4WLC-1. If no packets are shown the sender has not sent any weather packets the latest 10 day(s).
| Time | Temp. | Humidity | Pressure | Rain* | Wind** | Luminosity | Snow |
|---|---|---|---|---|---|---|---|
| 1777163610 | 10° C | 58% | 1022.7 hPa | 0 mm | - | - | - |
| 1777163311 | 10° C | 58% | 1022.4 hPa | 0 mm | - | - | - |
| 1777163010 | 10° C | 59% | 1022.4 hPa | 0 mm | - | - | - |
| 1777163009 | 10° C | 60% | 1022.3 hPa | 0 mm | - | - | - |
| 1777162710 | 10° C | 60% | 1022.3 hPa | 0 mm | - | - | - |
| 1777162411 | 10° C | 59% | 1022.3 hPa | 0 mm | - | - | - |
| 1777162177 | 9.44° C | 60% | 1022.4 hPa | 0 mm | - | - | - |
| 1777162110 | 9.44° C | 59% | 1022.5 hPa | 0 mm | - | - | - |
| 1777161810 | 9.44° C | 60% | 1022.4 hPa | 0 mm | - | - | - |
| 1777161511 | 10° C | 59% | 1022.4 hPa | 0 mm | - | - | - |
| 1777161210 | 10° C | 58% | 1022.4 hPa | 0 mm | - | - | - |
| 1777160911 | 10° C | 55% | 1022.4 hPa | 0 mm | - | - | - |
| 1777160611 | 10° C | 57% | 1022.4 hPa | 0 mm | - | - | - |
| 1777160311 | 10° C | 57% | 1022.3 hPa | 0 mm | - | - | - |
| 1777160011 | 9.44° C | 58% | 1022.1 hPa | 0 mm | - | - | - |
| 1777159711 | 9.44° C | 61% | 1022.1 hPa | 0 mm | - | - | - |
| 1777159411 | 9.44° C | 62% | 1021.9 hPa | 0 mm | - | - | - |
| 1777159111 | 10° C | 61% | 1022 hPa | 0 mm | - | - | - |
| 1777158811 | 9.44° C | 60% | 1021.9 hPa | 0 mm | - | - | - |
| 1777158511 | 10° C | 62% | 1021.9 hPa | 0 mm | - | - | - |
| 1777158211 | 10° C | 59% | 1022 hPa | 0 mm | - | - | - |
| 1777157911 | 10° C | 60% | 1022 hPa | 0 mm | - | - | - |
| 1777157611 | 10° C | 57% | 1022.2 hPa | 0 mm | - | - | - |
| 1777157311 | 10° C | 57% | 1022.1 hPa | 0 mm | - | - | - |
| 1777157011 | 10.56° C | 57% | 1022.2 hPa | 0 mm | - | - | - |
* Rain latest hour (hover to see other rain measurements)
** Current wind speed in m/s (hover to see current wind gust speed)